Theta_e
313 312 311 313 318 319 320 320 321 321 319 319 319 318 319 320 321 321 320 321 324 326 328 329 332 337 345 348 347 348 349 351 352 357 355 349 350 351 350 351 348 346 342 335 335 335 335 334 332 331 331 334 337 338 339 338 338 337 332 331 332 333 333 334 334 332 328 327 326 324 323 323 325 324 322 323 327 332 334 334 331 327 329 329 327 324 321 319 317 316 315 316 317 316 315 314 315
312 312 310 315 320 320 321 320 319 320 317 316 317 317 319 321 322 321 320 323 328 330 330 332 334 340 346 348 346 348 350 350 349 352 351 349 351 350 350 350 348 346 341 336 335 336 335 334 332 331 330 333 336 338 338 338 338 338 333 331 332 333 334 334 335 331 327 326 324 324 325 326 327 328 328 330 331 333 335 336 336 333 329 327 326 323 319 319 317 315 314 315 316 315 314 314 316
313 314 312 317 321 320 322 321 319 319 317 315 315 318 319 320 321 322 325 328 332 332 331 335 338 340 345 348 346 348 350 349 350 352 351 351 350 349 350 350 348 345 341 336 335 336 335 334 332 330 329 332 336 338 338 338 339 338 333 331 332 333 335 336 334 329 326 324 322 323 326 327 328 328 329 331 331 331 333 335 337 336 333 328 325 323 321 319 317 315 314 314 314 314 313 314 316
316 317 319 322 320 319 324 325 323 319 317 317 316 319 321 320 321 323 328 332 333 333 333 338 344 346 346 348 346 348 349 349 350 351 351 351 350 349 350 350 347 344 339 336 336 336 335 334 332 328 327 330 335 338 338 338 339 338 334 330 332 334 336 336 331 326 324 322 321 323 325 328 328 328 329 330 329 328 329 332 333 335 333 327 323 325 325 320 317 316 313 313 314 313 313 313 316
318 320 323 326 321 318 323 327 326 322 319 318 317 320 322 320 321 324 325 330 332 330 330 338 346 348 348 349 348 348 349 349 350 351 352 351 350 350 350 349 346 341 337 336 336 336 336 334 330 327 326 328 334 337 338 339 339 339 335 331 332 335 337 336 328 322 321 321 321 322 324 327 328 328 328 327 326 325 326 328 329 330 327 322 321 324 323 320 318 316 314 313 313 313 313 314 317
319 321 322 324 322 317 321 324 324 322 321 321 320 321 322 320 321 322 321 324 327 327 327 338 345 348 349 349 349 349 349 350 351 351 352 350 350 350 349 348 343 338 336 336 336 336 335 333 330 326 324 327 333 336 338 338 338 338 335 331 333 336 337 332 323 319 320 320 321 322 324 326 327 326 325 324 323 324 324 324 323 323 321 319 321 323 321 320 319 317 315 314 313 313 314 314 318
319 320 319 321 320 317 321 322 322 321 321 323 323 323 323 321 321 321 322 321 323 323 323 340 345 347 349 348 349 349 348 349 351 351 351 351 350 350 349 345 339 335 336 336 336 336 335 333 329 325 324 327 331 335 337 338 338 338 334 331 334 337 334 324 318 319 321 322 322 323 325 327 328 327 325 325 325 324 323 323 322 322 323 322 322 322 322 320 319 318 315 314 313 313 315 315 317
317 318 318 318 318 318 321 321 321 322 322 323 321 322 322 320 321 320 323 320 322 322 322 338 343 348 349 348 350 349 348 349 350 351 351 351 350 349 347 343 337 335 336 336 336 336 335 333 327 324 324 327 330 333 336 337 338 337 334 332 335 336 327 318 319 323 324 324 325 328 329 330 331 330 329 329 329 327 326 325 324 324 324 324 323 322 322 320 319 319 316 314 313 314 315 316 317
315 316 317 317 317 317 318 319 320 321 321 322 320 321 321 320 321 320 322 320 322 321 323 334 338 348 350 349 350 350 350 350 350 351 350 350 349 348 346 343 340 338 337 336 336 336 335 331 326 325 324 327 330 332 335 337 338 336 333 334 337 332 321 319 324 327 328 328 330 332 333 333 333 332 332 331 331 331 330 329 328 327 326 326 327 325 323 322 320 318 317 315 313 314 314 316 316
314 315 317 318 317 316 314 315 317 319 319 320 319 320 321 321 321 320 321 320 321 320 328 337 339 348 350 350 350 350 351 351 351 351 350 350 349 348 346 344 343 342 341 337 336 336 333 329 327 326 325 327 329 332 335 337 337 334 334 336 334 325 319 324 329 331 332 332 333 333 333 334 334 333 333 331 330 332 333 332 332 331 330 329 329 327 326 327 324 320 318 317 314 314 314 316 318
315 315 316 318 318 316 314 314 315 317 318 318 319 320 321 321 321 321 320 321 321 321 329 340 346 349 350 350 350 350 351 351 350 350 350 350 350 348 346 345 345 344 343 337 335 336 333 330 327 327 326 326 329 334 336 336 335 334 336 335 325 320 323 329 331 332 333 333 333 334 334 334 334 333 333 331 329 332 333 333 333 332 331 331 330 328 327 328 328 326 322 320 317 316 315 317 319
316 316 316 317 319 318 317 316 315 317 318 319 319 319 321 321 322 321 321 321 321 321 322 339 348 348 350 350 349 349 349 350 349 349 350 350 350 348 346 346 346 346 344 337 335 336 333 330 330 329 327 327 331 334 335 335 334 335 336 330 321 323 330 332 333 333 333 333 333 333 333 333 333 333 332 330 327 328 331 331 331 330 328 328 328 327 325 324 325 327 326 323 319 318 317 316 319
315 315 316 317 320 319 318 317 317 320 319 319 320 319 322 320 321 321 321 321 320 321 319 337 345 346 351 350 349 349 349 349 349 349 350 350 349 349 348 347 346 347 343 337 335 335 333 332 332 330 329 333 334 333 335 334 335 335 331 323 323 330 332 333 334 334 334 333 333 333 332 331 331 331 331 330 325 324 325 326 327 325 322 321 321 320 319 318 319 321 321 322 320 319 318 316 316
315 315 315 317 319 317 316 315 316 317 317 319 320 320 322 320 323 322 323 323 322 328 330 341 343 346 351 350 350 350 350 349 349 350 350 349 349 349 348 348 347 347 342 336 335 335 335 334 334 332 331 333 333 332 332 333 334 331 324 322 328 332 332 333 334 334 333 333 332 331 329 328 328 328 328 329 325 324 324 326 326 322 319 319 318 318 317 315 315 316 317 318 318 319 319 318 315
315 315 316 317 317 317 316 316 316 315 317 321 320 321 321 320 323 323 325 323 326 336 338 342 341 347 351 350 351 350 349 349 349 350 350 349 349 348 348 348 346 344 339 335 335 336 337 336 335 334 332 331 332 331 328 329 329 325 322 326 330 332 333 333 333 332 332 331 330 327 326 326 327 327 327 327 326 325 327 327 325 322 320 321 320 320 319 317 316 315 315 316 318 318 317 318 316
315 315 317 317 317 316 317 318 318 316 318 320 320 320 321 321 322 323 324 320 330 338 338 340 337 344 349 348 349 348 348 349 350 350 350 349 348 348 348 346 343 339 336 335 334 335 336 336 336 336 333 332 333 332 327 326 325 323 324 328 332 333 333 333 332 330 330 330 327 324 325 326 327 327 326 326 326 326 326 326 325 322 321 321 321 320 320 319 318 316 315 315 317 318 317 318 318
315 315 316 317 316 315 316 317 317 317 318 319 319 319 319 321 322 323 322 326 337 340 339 341 338 341 345 346 347 348 348 349 350 350 349 348 348 348 346 344 342 338 334 334 335 335 336 336 336 336 335 334 334 333 329 326 323 323 326 329 332 333 333 332 331 330 328 328 326 324 325 326 327 327 326 326 326 326 325 326 325 323 322 321 321 320 320 320 319 319 317 316 316 317 317 317 317
315 316 316 315 316 315 316 317 318 318 319 320 320 320 320 320 323 324 322 330 341 342 342 342 342 344 345 348 349 348 348 349 350 349 349 348 348 348 345 344 343 338 335 335 335 335 336 335 335 335 335 335 334 333 331 329 326 326 328 330 332 333 333 332 330 329 327 325 324 324 326 326 326 326 325 326 326 327 326 326 326 323 323 322 321 321 320 320 319 319 319 318 316 316 317 318 319
315 317 317 315 315 316 317 317 318 318 319 320 319 320 320 320 324 326 324 329 337 343 345 346 348 350 350 350 349 348 348 349 349 349 348 349 349 347 345 344 342 340 337 336 335 336 337 335 335 335 335 335 334 333 332 331 329 328 330 331 333 333 332 331 330 328 324 323 323 325 327 327 327 325 325 326 326 327 327 326 325 324 323 322 321 321 320 321 320 319 319 319 317 316 320 321 322
315 316 316 316 316 316 316 317 318 318 319 319 319 320 319 319 322 325 327 332 336 341 345 348 351 351 350 350 349 348 347 348 349 349 348 349 348 346 345 344 343 342 340 339 338 338 338 336 335 335 335 335 334 334 334 332 331 330 331 332 333 332 331 330 329 326 324 323 323 326 328 327 326 325 325 326 327 327 327 326 324 323 323 322 321 320 321 320 321 320 319 320 319 319 324 326 327
315 316 316 316 316 317 317 318 318 318 319 319 319 319 319 318 320 322 327 338 339 338 343 347 349 350 350 350 349 348 347 347 349 348 348 348 347 345 345 345 344 343 342 341 340 339 339 338 336 335 335 335 333 334 334 333 332 332 332 333 333 332 330 328 328 325 323 323 324 327 328 326 325 326 326 326 328 328 327 326 325 324 324 324 323 322 324 322 322 323 321 321 323 324 327 328 330
315 315 315 316 316 317 317 318 318 318 318 318 318 319 319 318 320 321 324 339 341 336 340 343 346 347 348 349 349 348 346 347 348 347 347 347 346 346 346 345 344 344 342 341 339 338 338 337 336 336 336 335 334 334 334 333 333 332 333 333 332 331 329 327 327 325 323 323 325 328 327 325 326 327 327 327 328 328 327 328 327 327 327 329 327 326 329 327 326 328 326 325 326 328 329 329 330
314 314 315 316 317 317 318 318 318 318 318 317 318 318 318 317 319 319 320 335 337 334 336 339 343 345 346 348 348 347 346 347 347 346 346 346 345 346 346 344 344 343 342 341 340 339 338 335 335 336 335 335 334 334 334 333 332 332 332 332 331 330 329 327 327 325 324 324 325 327 326 325 326 327 327 327 328 328 328 328 329 329 329 331 329 327 328 329 329 329 328 327 326 327 328 329 330
315 314 315 317 317 317 317 318 318 318 318 318 318 318 318 317 318 318 323 331 333 333 334 335 341 345 346 348 348 347 347 347 346 345 345 345 345 345 345 344 343 343 342 341 339 338 337 335 334 334 333 333 334 334 332 331 331 331 331 331 330 330 329 327 327 325 325 325 326 326 325 325 325 325 327 328 328 328 327 326 327 329 329 330 329 326 328 329 329 328 328 329 328 327 328 329 329
315 314 315 317 317 318 318 318 318 318 318 318 318 318 317 317 318 318 324 331 332 331 332 333 340 345 346 347 346 347 347 346 345 345 344 344 344 344 344 343 343 342 341 340 337 336 336 335 335 333 332 332 333 332 328 329 330 330 329 329 329 330 329 327 327 326 326 326 326 326 326 326 326 326 327 327 327 326 325 324 326 327 327 328 327 326 328 328 328 329 328 327 328 329 328 328 329
315 315 315 316 317 318 318 318 318 318 318 318 318 317 317 317 318 317 324 332 332 331 332 334 340 343 345 345 345 347 348 345 344 343 343 343 342 342 343 342 342 341 340 337 335 334 334 334 334 333 333 332 331 329 328 330 330 329 328 328 328 329 328 326 327 327 326 326 326 327 327 327 327 326 326 326 325 324 324 324 325 325 325 327 328 327 328 328 328 329 326 326 327 328 328 328 328
315 315 315 316 317 317 317 317 318 318 318 318 317 317 317 317 318 317 322 331 332 332 333 335 338 341 343 343 344 348 348 346 345 341 341 343 341 340 341 341 340 340 338 334 333 333 332 333 333 332 332 332 330 329 330 330 330 328 328 329 328 328 327 326 328 327 326 327 328 328 328 327 327 326 326 325 325 324 324 325 325 325 326 328 328 328 329 329 329 328 326 326 326 328 328 328 328
315 315 315 315 316 316 317 317 317 317 317 318 318 317 317 316 317 316 318 328 331 332 334 335 337 339 341 341 344 348 348 347 345 342 341 343 341 339 340 340 339 339 337 334 333 332 333 333 332 331 331 331 330 330 330 329 329 329 330 330 328 327 327 327 327 327 327 328 329 328 328 328 327 326 326 325 326 325 324 326 326 325 326 328 329 328 328 328 328 328 326 326 327 327 327 328 328
315 315 315 315 315 316 316 317 317 318 317 318 318 317 316 316 317 317 317 322 329 332 332 334 338 341 341 341 345 347 347 346 345 343 342 341 338 338 340 340 339 339 337 335 333 333 333 333 332 331 331 330 330 330 331 330 330 330 331 330 328 327 328 327 327 327 328 328 328 328 328 328 328 327 326 327 327 326 324 325 326 326 326 327 328 327 326 327 328 327 325 325 327 327 326 327 328
315 315 315 315 315 315 317 317 317 317 317 319 317 315 315 316 316 317 318 318 324 330 331 333 339 342 341 342 345 345 345 345 342 341 342 342 339 338 339 339 338 338 337 335 333 333 334 333 332 331 331 331 331 331 331 331 330 330 330 330 328 328 329 328 328 327 328 328 328 329 329 328 329 328 328 328 328 327 325 325 326 326 326 326 327 326 326 327 327 326 325 325 326 326 327 327 328
315 315 315 315 314 314 317 317 317 316 317 319 317 314 316 317 316 317 318 318 318 325 330 333 337 341 340 340 343 342 343 343 339 335 340 343 340 339 339 339 338 337 337 335 334 334 333 332 331 331 332 332 332 331 330 330 330 330 330 329 329 329 329 328 328 329 329 329 328 329 329 329 328 328 329 328 328 328 327 327 327 326 327 327 326 325 326 327 325 325 326 326 326 327 328 328 328
315 314 314 315 314 314 316 316 317 316 316 318 316 314 316 316 317 317 317 319 317 320 329 334 335 336 336 336 340 341 341 343 340 337 340 342 340 340 339 338 339 338 338 337 335 334 333 333 331 331 332 333 332 330 330 331 331 330 330 330 330 330 329 328 329 330 330 329 329 330 330 329 327 327 328 328 329 328 328 328 328 327 327 327 326 325 326 326 325 326 327 326 326 328 328 328 328
317 316 315 316 315 313 315 315 316 316 316 317 316 315 317 317 317 317 317 318 317 319 326 333 335 335 336 336 339 341 342 343 342 342 343 342 341 339 337 338 339 338 338 337 336 335 334 334 332 331 332 333 332 331 331 331 331 330 330 330 329 329 329 330 331 331 331 330 329 329 329 328 327 327 328 329 329 328 328 328 327 327 327 327 327 326 326 326 326 327 327 326 327 328 328 327 328
319 317 316 317 316 314 314 314 315 316 315 316 317 316 317 318 317 316 317 317 318 318 323 332 335 335 337 338 339 341 343 342 342 343 343 342 341 338 336 338 338 338 339 338 336 336 335 334 331 332 332 332 332 331 331 331 331 331 331 330 329 330 331 332 331 330 330 330 328 328 328 328 327 328 329 329 329 328 328 328 327 327 328 327 326 327 326 326 326 327 326 326 327 328 328 328 328
318 318 317 316 314 314 313 314 315 315 315 315 316 316 316 318 317 316 317 316 318 318 323 331 334 335 336 337 339 341 343 343 343 343 342 341 341 339 337 338 338 338 339 337 337 337 336 333 331 332 333 333 333 332 332 333 333 333 333 331 331 332 331 330 329 328 327 327 328 328 327 327 327 328 329 329 329 329 328 328 327 328 328 327 327 326 325 324 325 325 325 325 327 328 329 329 328
316 316 317 315 314 314 313 314 316 315 315 315 316 315 315 316 317 316 317 317 317 317 322 330 334 336 336 337 339 341 342 342 343 343 341 341 341 340 338 338 339 338 338 337 336 336 335 334 333 333 333 332 333 333 333 334 334 332 332 331 331 330 329 329 329 328 325 325 327 328 327 326 327 327 328 328 328 328 328 328 327 327 327 327 327 325 323 323 324 324 324 325 327 328 329 330 329
316 315 315 314 314 314 315 315 316 316 315 315 316 316 315 316 317 317 317 316 318 319 319 326 334 337 336 337 338 341 343 343 344 343 341 341 341 340 338 339 339 338 339 336 334 336 335 334 332 333 334 331 331 334 334 333 332 331 331 330 329 328 330 331 330 328 326 324 325 326 327 327 327 328 328 328 327 328 328 326 326 326 326 325 326 325 324 324 324 323 323 325 326 327 328 330 329
318 317 315 315 314 315 317 317 317 317 317 316 316 317 316 316 317 318 317 317 318 321 320 323 332 336 334 335 338 342 344 343 344 343 342 341 341 340 339 339 339 338 338 335 335 337 335 333 331 333 334 329 329 334 333 331 329 328 328 328 328 328 330 331 330 329 327 324 324 326 326 326 327 328 328 327 328 328 327 326 326 326 326 326 327 326 325 325 325 325 325 325 325 326 327 328 328
319 318 317 315 315 316 317 319 318 317 317 317 315 316 318 319 319 318 319 320 320 322 321 322 331 335 333 333 337 341 343 343 344 342 342 341 340 340 339 339 339 338 338 335 336 337 334 332 332 332 332 327 329 333 332 329 328 326 325 326 328 327 328 328 328 329 328 324 324 327 327 326 327 328 328 327 327 327 327 327 327 326 326 327 327 326 326 327 327 326 325 325 324 325 326 327 326
320 319 318 316 316 316 317 320 322 321 323 321 318 320 323 321 319 319 319 320 321 322 322 322 328 333 333 334 337 341 342 342 343 341 341 341 340 340 339 339 339 337 336 336 336 335 333 332 331 329 329 329 332 333 331 330 330 329 328 328 328 328 329 328 325 326 326 322 323 325 324 325 327 327 327 328 328 327 327 327 327 327 327 327 327 327 327 327 327 326 325 325 324 323 324 325 325
322 321 319 318 318 317 317 321 323 326 329 328 326 328 331 327 319 321 322 320 322 322 322 322 324 328 331 336 339 340 342 341 341 341 341 341 340 340 340 339 337 334 335 334 334 334 332 331 329 326 327 332 334 333 332 332 331 331 330 329 329 328 329 328 325 326 325 322 321 322 321 322 324 324 324 326 328 327 326 327 327 327 327 327 327 327 328 327 326 326 325 325 324 323 322 323 323
323 324 323 320 319 318 318 320 320 321 324 328 325 322 329 331 321 324 324 319 322 322 322 323 321 326 332 336 338 338 340 340 339 341 341 342 341 341 340 337 333 333 333 330 331 333 332 329 327 325 328 332 333 332 332 331 330 331 330 330 329 329 329 326 323 326 327 323 320 322 324 323 323 321 319 320 323 323 321 323 325 324 325 327 327 327 327 327 327 327 326 325 325 323 323 324 324
321 323 323 320 319 318 319 319 317 317 320 326 324 319 325 330 323 323 323 320 321 322 325 324 318 327 333 335 336 336 339 339 339 340 341 341 341 339 337 333 332 333 331 328 330 332 331 329 326 326 329 330 331 330 330 329 329 329 330 330 330 328 325 321 321 324 326 325 322 323 326 326 324 322 318 317 317 315 312 317 323 323 322 323 326 327 327 327 327 327 326 325 325 325 324 325 325
319 321 320 318 318 317 318 318 316 318 321 322 323 321 321 323 324 326 323 321 322 324 327 324 324 330 334 334 335 335 338 339 338 337 337 337 338 335 332 331 332 332 331 330 330 328 327 328 328 330 330 328 328 328 328 328 326 327 329 328 326 322 319 321 324 325 326 326 321 319 321 322 323 324 322 320 315 311 310 317 324 325 323 322 323 326 328 327 326 326 326 325 326 326 325 325 326
319 320 318 317 316 316 317 317 316 321 322 319 321 323 319 320 326 326 323 321 321 325 326 328 331 332 333 333 334 336 337 337 337 336 334 334 335 333 330 331 331 330 329 329 329 327 326 328 329 330 329 326 327 327 327 325 324 325 324 322 323 324 322 323 326 327 326 323 317 315 316 316 319 322 322 322 317 313 314 320 325 326 325 325 323 324 327 328 327 327 325 325 325 326 325 325 326
319 318 318 317 315 317 317 317 317 319 322 321 323 323 319 322 328 324 321 322 322 325 327 330 332 332 332 331 333 334 334 334 334 335 334 332 333 333 330 330 328 326 327 327 327 326 325 326 328 329 327 325 326 325 324 322 321 321 317 318 324 327 325 323 324 326 321 317 316 319 320 317 318 322 323 324 322 318 319 321 325 326 325 326 325 325 326 327 327 326 325 325 326 325 326 325 326
318 317 317 315 316 318 318 319 320 318 321 324 326 324 319 323 332 327 322 326 330 329 329 331 332 331 329 330 331 331 331 331 332 333 333 331 332 333 331 329 326 325 326 325 325 324 324 325 327 328 326 324 324 323 322 320 317 317 316 319 325 326 324 320 319 318 313 313 318 322 323 320 320 323 323 325 325 322 323 323 324 326 325 325 324 324 325 326 325 324 324 324 324 324 325 325 325
316 317 316 316 319 321 318 318 317 318 322 324 322 322 319 321 330 329 325 328 331 329 330 331 331 330 330 331 331 331 331 331 331 332 332 332 333 332 329 326 324 324 326 325 324 323 324 326 327 326 325 324 323 322 321 317 314 317 318 320 322 321 319 315 311 310 309 311 316 319 320 319 320 321 320 323 326 325 324 323 323 324 325 324 324 323 324 323 322 321 322 323 323 324 325 323 323
315 316 316 315 319 321 319 318 317 319 325 324 319 320 320 321 326 328 328 329 329 327 328 330 330 330 330 331 330 331 330 331 330 330 331 333 333 330 326 324 322 323 325 324 323 323 323 325 326 325 324 322 322 321 319 314 313 317 319 320 320 317 315 312 309 309 309 311 314 317 319 320 321 322 320 321 323 323 324 324 323 323 323 323 324 324 323 321 320 320 320 320 322 324 325 323 323
316 317 317 318 319 319 320 320 319 321 323 321 319 319 320 324 326 328 329 328 328 328 327 329 331 330 329 329 330 330 329 330 330 330 329 331 332 330 326 325 323 321 321 320 321 323 323 324 325 324 322 320 320 319 315 314 317 321 321 321 318 314 313 311 309 309 312 314 316 318 321 322 323 323 322 322 320 320 322 323 323 323 323 323 324 324 323 321 321 320 320 321 322 324 324 324 324
318 318 319 321 322 321 321 320 320 322 324 325 322 320 323 326 326 327 329 327 328 329 329 331 331 329 329 330 330 330 330 330 330 330 329 328 330 329 328 327 324 321 318 318 321 323 322 323 324 324 322 320 319 318 314 315 322 325 323 321 317 312 312 310 309 312 315 316 318 321 323 324 324 323 323 322 319 318 319 320 320 320 320 322 323 322 323 323 322 321 322 322 322 323 324 324 324
323 320 314 319 324 325 325 323 321 322 326 327 324 324 328 330 328 326 327 327 328 329 331 332 331 330 331 330 330 329 329 329 329 329 329 328 328 329 329 327 325 323 319 320 323 324 322 321 322 323 322 320 319 319 317 319 325 327 324 323 319 313 312 310 310 315 319 319 320 322 324 324 323 324 323 322 319 317 317 319 317 314 314 319 322 322 323 324 322 320 321 323 322 322 323 323 323
331 322 314 319 323 324 326 326 324 322 323 324 326 329 330 330 330 328 328 328 328 328 330 331 331 331 331 331 330 329 329 330 330 330 330 330 328 328 329 328 327 326 324 324 326 324 322 321 322 322 321 320 320 320 321 324 328 328 326 326 322 314 312 310 311 317 321 320 320 322 324 323 323 324 323 319 313 311 311 313 310 307 309 315 319 322 322 323 322 319 319 320 318 319 322 322 321
326 319 317 320 321 323 326 326 323 321 320 321 327 331 329 329 333 331 329 330 329 328 329 329 330 331 331 331 330 329 329 330 330 330 331 330 329 328 327 328 328 328 327 328 328 326 324 323 324 324 322 321 321 320 321 326 329 329 328 328 324 316 312 312 314 318 320 319 319 321 323 322 321 322 318 311 307 307 307 306 306 306 308 310 314 318 321 322 320 316 315 316 314 315 319 319 317
319 321 322 323 326 328 326 323 322 323 323 321 324 330 330 330 332 331 330 331 330 328 328 328 329 330 330 330 330 329 329 329 329 329 330 330 330 328 327 327 327 327 327 327 327 326 324 324 324 324 323 323 322 321 322 325 328 328 327 327 323 316 313 314 316 318 318 316 317 319 320 319 318 316 311 306 306 307 306 305 306 307 308 308 308 311 314 315 314 314 314 313 311 311 314 314 314
316 320 319 322 330 332 327 325 324 324 326 323 324 331 334 331 329 330 331 330 329 329 328 328 329 329 330 329 329 329 329 329 329 328 329 329 329 329 328 327 325 325 326 325 325 324 323 323 323 323 323 323 323 322 323 326 329 328 328 326 322 317 314 315 317 318 316 314 315 316 316 314 313 310 307 306 306 306 306 306 306 306 308 309 307 306 307 307 308 310 310 308 307 308 309 311 312
315 317 316 318 325 326 324 326 322 320 328 329 327 331 334 332 329 329 332 330 328 329 328 327 328 328 329 328 327 328 328 328 328 328 328 329 329 329 328 327 326 326 326 325 324 323 323 324 324 325 325 324 324 322 323 328 330 328 329 328 324 320 318 318 320 318 314 313 315 314 312 310 309 307 306 306 306 306 306 306 305 305 307 309 308 307 307 306 305 307 307 306 306 306 306 308 309
316 318 319 320 324 325 323 323 322 319 325 328 329 332 332 331 328 328 329 329 327 327 327 326 327 327 328 328 327 327 327 327 327 327 327 328 328 328 328 329 329 328 328 327 326 326 326 326 327 327 326 325 325 323 324 329 330 328 328 328 327 325 323 322 322 318 314 315 317 314 310 309 309 308 308 309 309 309 309 308 307 306 307 308 308 308 309 308 306 308 309 308 307 307 308 310 310
Wind_Speed
8 6 7 9 7 4 1 2 1 2 1 3 5 4 8 10 9 11 14 14 8 4 11 19 20 23 18 14 17 20 17 8 4 4 7 12 15 20 19 18 14 15 22 24 24 22 20 19 19 20 21 21 21 21 21 20 18 18 18 17 17 16 14 14 13 13 13 13 13 14 15 16 16 16 14 13 12 12 12 11 10 9 9 9 8 7 7 8 10 10 9 9 12 17 18 19 20
9 8 9 8 3 1 2 2 2 1 3 4 5 7 9 6 8 12 16 12 3 2 15 25 27 31 30 25 22 21 20 18 18 19 21 22 20 18 17 17 12 14 22 24 24 22 21 19 19 19 20 20 20 21 21 19 18 17 17 17 16 15 14 13 13 12 13 13 12 13 14 15 15 14 13 12 11 11 11 11 10 8 7 7 6 5 6 8 9 9 9 8 13 17 18 20 21
11 11 12 6 1 1 5 2 2 2 4 5 6 7 6 7 10 10 9 5 6 11 17 25 24 22 26 24 21 16 12 17 23 27 25 20 19 19 15 13 11 15 21 24 23 21 21 20 19 19 19 20 19 20 20 19 18 17 17 16 16 15 13 13 12 11 12 13 12 12 13 14 14 13 12 12 11 10 11 11 9 8 7 6 5 5 7 9 9 9 8 8 14 17 18 20 21
10 11 12 5 2 2 3 1 3 2 3 5 6 5 6 11 10 4 5 6 10 14 16 19 16 18 26 18 16 17 12 15 19 22 20 16 18 18 12 10 11 17 23 24 22 21 20 20 19 18 19 19 18 19 19 19 18 17 16 16 16 14 13 12 11 11 12 13 12 12 12 13 13 12 12 11 10 10 10 10 8 7 6 4 4 6 7 9 9 9 9 9 13 16 17 19 20
9 10 8 4 3 1 1 1 3 3 6 5 4 5 6 7 3 3 5 8 8 11 12 14 8 15 26 16 11 10 8 14 14 16 20 19 15 13 10 9 13 20 25 23 22 21 20 20 19 18 18 19 18 18 19 19 18 16 16 16 15 14 13 12 11 11 12 13 12 12 12 12 12 12 11 10 9 9 9 9 7 6 4 2 4 6 7 8 9 9 9 9 13 16 16 18 20
9 9 5 4 6 4 2 2 3 5 8 6 6 9 8 7 4 7 5 5 4 8 10 13 16 16 18 16 18 11 8 13 15 18 21 20 13 10 9 10 16 23 25 23 21 20 20 20 18 17 18 18 18 18 18 18 18 16 16 16 15 13 13 12 11 11 12 13 12 12 12 12 12 11 10 10 9 9 9 8 7 5 4 3 5 6 6 7 8 10 10 9 12 14 15 17 19
10 5 4 5 7 4 2 3 5 6 8 8 10 11 12 10 4 7 7 3 4 5 5 15 27 21 10 11 16 15 11 12 18 18 16 18 14 10 9 13 21 24 23 22 21 20 20 20 18 18 17 18 18 18 18 18 18 17 16 16 15 14 13 11 12 13 13 12 12 13 13 12 12 11 9 9 8 8 8 8 7 7 7 7 7 6 5 6 8 10 10 10 11 12 14 16 18
8 3 4 2 2 2 3 4 6 7 8 11 12 13 12 9 7 4 5 4 1 2 8 20 28 17 8 13 12 13 14 11 17 17 15 17 12 11 10 16 22 23 22 21 21 20 20 20 19 18 18 18 18 17 17 18 17 17 17 16 15 14 13 13 13 13 13 13 13 14 14 13 12 11 10 9 9 8 8 8 8 8 8 8 7 6 5 5 7 9 10 10 10 11 12 14 16
8 5 4 1 2 2 3 4 7 9 11 13 14 14 9 4 6 4 3 4 4 1 7 20 22 11 11 20 15 17 21 14 18 17 16 16 13 13 11 16 20 20 21 20 21 20 21 20 19 18 18 18 18 18 17 18 18 17 17 16 15 14 13 14 14 14 13 13 13 14 14 13 12 11 10 9 9 9 9 9 9 8 7 7 7 7 5 5 6 8 10 10 10 10 11 12 14
7 8 5 1 3 4 5 5 6 9 12 13 15 14 5 5 5 3 2 3 2 4 11 21 18 17 17 16 13 18 24 20 20 18 17 18 17 15 14 19 18 17 18 21 22 21 22 21 19 19 18 19 18 18 17 18 18 18 17 15 14 14 15 15 15 14 14 13 12 13 13 13 12 11 10 9 9 8 9 9 9 8 8 8 7 6 5 5 5 7 9 10 10 10 10 10 13
6 8 6 2 3 4 5 6 7 9 11 12 14 14 10 11 7 4 2 2 3 5 13 22 14 20 19 10 12 16 21 19 18 19 19 19 19 18 19 22 17 14 17 22 23 22 23 21 20 19 18 19 18 18 18 19 18 18 17 15 14 14 15 16 15 15 14 13 12 12 12 12 11 10 9 9 8 8 8 8 8 7 7 7 6 6 5 4 3 4 5 7 9 9 9 9 11
6 4 5 2 3 5 6 6 8 10 10 11 12 10 14 13 8 4 2 1 0 5 4 15 17 21 13 5 12 15 19 18 16 20 20 19 19 20 22 22 17 14 16 22 24 23 24 23 22 20 19 19 19 19 19 19 19 18 16 15 15 16 17 17 16 15 14 14 12 12 12 12 11 10 9 9 8 7 7 6 6 5 4 4 5 5 4 3 2 1 2 4 6 8 8 8 9
9 4 3 3 4 4 6 7 8 8 8 8 7 8 15 12 6 4 4 2 1 5 4 17 28 22 10 8 16 18 19 19 19 21 20 20 19 21 22 20 18 15 17 23 24 25 25 24 24 23 21 20 20 21 20 20 19 18 17 17 18 18 18 18 17 16 15 14 14 13 12 11 11 10 9 8 6 6 6 5 5 5 4 4 4 4 2 2 1 1 1 2 4 6 8 8 8
13 9 4 3 4 4 6 6 7 7 5 5 2 7 11 7 5 5 6 4 3 3 9 22 27 18 12 12 14 20 23 21 22 21 21 21 19 20 20 19 17 15 19 24 25 26 25 23 24 24 23 22 22 22 21 20 19 19 19 19 19 19 18 17 16 15 15 14 14 13 12 11 10 9 8 7 7 6 7 6 6 6 6 6 5 5 5 3 2 1 1 1 2 4 7 9 9
16 14 5 3 5 5 6 6 8 6 5 5 1 6 6 6 7 9 10 5 9 18 20 17 12 9 12 11 12 23 26 24 23 22 22 21 20 19 18 18 16 18 22 25 25 26 25 24 23 23 23 23 23 23 22 21 21 21 20 20 19 18 17 16 15 14 14 14 14 13 12 11 10 8 7 7 7 8 8 7 6 6 5 6 6 6 6 5 5 3 2 2 2 3 5 7 9
18 14 3 3 6 5 6 6 7 6 6 5 2 3 2 5 6 6 6 1 10 20 17 13 9 9 15 15 19 28 27 26 25 23 23 22 21 20 19 19 19 21 25 25 25 25 24 23 22 22 22 23 23 23 23 23 22 22 20 19 18 18 17 15 15 14 14 14 13 13 13 11 10 8 7 6 6 7 8 7 5 5 5 5 6 6 6 6 6 4 3 2 2 3 4 6 8
19 12 4 4 6 6 7 6 6 4 3 4 5 9 4 5 4 6 7 7 18 22 19 18 13 15 15 16 23 29 28 27 26 24 23 23 23 22 22 23 23 24 26 26 24 23 22 21 21 21 21 21 22 22 23 24 23 22 20 19 18 17 15 15 15 14 15 14 14 13 13 11 10 8 7 5 5 6 7 6 5 4 4 4 4 4 4 5 5 5 4 3 3 4 4 6 7
14 6 4 5 6 7 8 9 8 4 3 4 6 11 7 4 6 5 7 13 26 25 23 24 19 17 17 19 25 28 29 28 28 25 25 25 24 23 23 25 26 26 26 25 23 22 21 20 20 20 19 20 22 22 23 24 24 23 20 19 18 16 15 15 15 14 14 14 13 13 12 11 9 8 7 5 5 6 6 6 5 4 3 3 3 2 3 3 4 4 4 4 4 4 6 7 8
10 3 4 6 7 9 13 12 12 10 3 3 5 7 6 5 9 6 1 9 20 17 18 26 26 23 23 25 26 27 28 28 28 27 25 25 24 23 23 26 28 27 25 23 22 21 18 19 20 18 18 20 23 22 22 22 23 22 20 19 18 17 16 15 14 12 12 12 12 11 11 11 9 8 7 7 6 5 5 5 5 4 3 2 2 2 2 2 2 3 4 4 5 7 8 9 8
10 8 4 6 8 10 19 18 18 20 7 2 5 3 3 4 3 3 4 9 14 10 10 18 22 23 26 27 26 26 27 28 28 26 25 24 22 21 22 26 28 26 25 21 19 20 16 17 20 19 18 20 22 21 20 21 22 21 20 19 18 18 16 14 12 11 12 12 11 11 11 10 9 8 8 6 5 4 4 4 4 4 3 2 2 2 2 2 2 4 5 6 9 11 11 12 10
8 10 4 8 10 9 20 22 23 23 10 4 4 4 2 8 5 1 7 9 8 8 11 15 21 24 25 26 25 25 26 28 27 25 24 24 20 19 22 25 26 24 22 19 18 19 16 16 20 19 19 20 21 19 19 21 21 21 20 19 18 17 15 13 12 12 13 12 11 11 11 10 9 8 7 5 4 3 2 2 3 4 3 3 2 3 4 4 3 4 6 6 10 12 13 12 10
7 9 10 15 14 11 21 22 22 18 12 8 6 4 7 13 9 5 4 4 6 13 18 18 21 22 22 24 25 24 26 28 26 24 23 22 19 18 23 25 24 22 21 21 20 18 16 17 20 19 19 20 20 18 18 20 21 22 21 19 18 16 15 14 14 14 13 13 12 11 10 9 9 9 6 4 4 3 3 2 2 2 3 3 3 3 5 6 5 4 5 5 9 11 11 12 10
8 7 12 19 19 15 21 24 21 13 9 8 8 11 13 11 6 7 4 8 17 20 21 20 18 18 21 23 24 22 25 29 23 22 22 21 19 19 24 25 23 22 22 22 19 16 16 20 20 18 19 20 20 19 19 20 21 21 20 19 17 16 15 15 15 15 14 13 11 10 10 9 8 7 6 5 4 4 3 2 2 2 2 2 2 3 4 5 4 3 4 5 8 9 9 11 9
11 7 9 16 20 18 21 25 22 13 4 3 4 12 14 8 4 7 4 18 23 20 19 20 18 17 21 21 21 20 24 26 20 20 20 18 18 20 23 24 23 22 21 20 18 17 19 22 21 20 21 21 21 21 20 21 21 21 20 18 17 15 15 15 16 15 14 12 10 9 9 7 6 6 6 6 5 5 4 3 3 3 4 4 4 3 2 2 2 2 4 5 7 8 8 9 8
11 9 11 14 18 21 23 25 23 14 5 5 0 6 13 12 5 7 7 23 22 20 21 22 21 19 20 18 18 19 22 22 18 18 18 15 17 20 23 24 23 22 21 20 18 19 21 24 25 23 23 22 23 23 22 22 21 20 19 18 17 16 15 15 14 14 13 11 9 8 7 5 4 5 4 5 4 5 5 5 5 4 5 5 4 2 2 1 1 1 4 4 5 7 7 9 8
9 11 14 13 16 21 22 24 24 17 8 11 6 6 13 15 5 6 9 26 22 24 26 23 23 20 19 18 17 19 22 21 17 17 16 16 17 20 23 25 24 23 21 20 20 22 23 25 26 24 24 24 24 24 22 21 20 19 18 17 16 16 14 13 13 13 12 10 9 8 7 5 5 5 5 5 5 6 7 6 5 5 5 5 4 2 2 2 1 1 3 3 4 6 6 8 8
14 15 15 15 18 21 21 22 22 18 7 9 5 4 11 14 4 4 8 27 27 27 29 26 24 22 20 19 18 19 21 20 17 17 18 18 18 18 22 24 24 24 24 23 23 24 25 26 26 24 25 25 24 23 21 20 19 18 17 16 16 15 13 13 13 12 10 8 8 8 6 6 6 6 6 6 6 6 7 6 5 5 6 6 4 3 1 3 3 2 2 3 3 5 5 8 8
19 17 14 14 17 19 21 20 19 16 6 5 4 4 9 10 5 7 12 20 31 29 30 30 26 25 25 22 21 22 22 20 18 19 21 20 18 17 21 24 25 26 26 25 25 26 27 27 25 23 24 24 23 22 20 19 19 18 17 17 15 14 12 12 12 10 9 7 7 7 7 6 6 8 9 8 7 6 6 5 6 6 6 7 6 4 3 5 4 3 3 2 2 3 4 8 8
20 16 11 11 10 12 15 12 15 15 5 8 7 5 8 7 6 13 19 18 26 31 30 31 29 28 27 24 24 25 23 20 19 21 21 21 20 20 22 23 25 27 26 25 25 27 29 27 24 23 23 22 21 20 19 18 18 17 17 16 15 14 12 11 10 9 8 7 5 6 6 7 8 10 11 10 9 7 6 5 6 6 7 8 8 7 6 5 4 4 4 2 2 2 5 8 8
14 10 5 7 8 6 7 6 12 13 6 12 10 4 7 7 9 17 21 21 20 26 29 29 29 29 27 26 25 25 24 21 21 21 19 20 22 24 23 23 25 26 27 27 27 28 29 27 25 23 23 23 21 20 19 18 18 17 16 15 14 13 12 10 9 8 7 6 5 6 6 7 8 11 12 11 10 9 7 7 7 7 8 8 9 9 8 6 5 5 5 4 3 3 6 8 7
6 5 4 4 5 5 5 6 9 9 9 18 13 3 7 7 11 21 21 23 22 20 29 30 28 30 29 27 26 25 23 21 21 20 19 19 20 22 23 25 26 27 28 28 27 28 29 28 25 24 24 23 21 20 19 18 17 17 16 15 14 12 11 10 8 6 6 6 6 6 6 7 9 10 11 11 10 10 9 9 8 8 8 8 9 9 8 7 6 6 6 5 5 4 6 8 7
3 4 5 4 5 5 6 8 9 8 9 18 13 3 6 7 10 22 23 25 25 17 29 30 28 30 30 28 28 27 24 22 21 20 21 20 20 20 21 24 26 27 29 28 28 29 29 28 26 23 24 23 19 19 18 16 16 16 15 15 13 12 11 10 8 7 7 6 6 6 6 7 8 9 8 8 9 9 10 9 9 8 8 8 9 9 9 8 7 6 6 6 6 6 6 8 8
3 4 5 4 5 4 5 8 11 13 9 13 12 4 4 5 10 22 24 26 25 17 27 29 30 32 32 29 28 27 25 25 23 22 22 21 22 20 19 24 27 27 28 29 30 30 30 29 26 24 25 23 20 19 17 15 16 15 14 14 13 12 11 9 8 8 7 6 5 6 6 6 6 6 6 7 8 9 10 9 9 8 8 9 9 9 9 8 7 7 7 6 6 8 7 7 8
4 4 5 6 6 5 5 6 10 15 12 10 11 8 6 5 11 23 24 27 26 18 24 31 34 32 32 30 28 28 27 28 28 25 23 22 22 20 20 25 28 26 27 29 30 31 31 29 27 25 23 22 21 20 18 16 17 15 14 14 13 12 11 9 8 8 7 6 5 5 6 6 5 6 6 7 8 9 9 9 10 9 9 9 8 8 8 8 8 7 8 7 6 7 7 6 7
5 6 5 5 8 8 9 7 8 13 13 11 11 10 10 7 10 19 21 24 24 20 25 35 36 31 31 30 29 30 29 31 30 26 24 22 20 20 22 26 27 24 25 28 29 28 28 28 27 25 22 22 22 21 20 18 17 15 15 15 14 13 11 10 10 8 7 6 6 5 6 7 6 5 3 4 6 7 7 8 9 8 9 8 8 7 7 8 9 8 8 7 7 7 8 7 7
10 11 7 6 7 8 11 12 11 12 10 12 12 10 12 13 11 13 18 18 15 15 23 33 33 29 30 30 30 31 30 31 29 25 23 21 19 19 23 26 24 23 26 28 26 23 23 26 28 25 23 23 23 23 22 20 18 17 16 16 15 14 13 12 11 8 7 7 7 7 6 6 6 5 3 4 4 5 6 7 7 8 8 8 7 7 6 7 9 8 8 8 8 8 9 8 8
11 10 8 8 6 6 10 12 13 13 8 13 15 11 12 16 13 12 18 18 12 13 18 26 29 31 31 31 31 31 30 30 28 25 23 22 20 20 23 25 23 25 28 27 24 22 23 25 26 25 25 24 22 23 22 20 19 19 18 17 16 16 16 14 11 8 8 8 8 7 6 5 6 6 4 4 4 5 6 7 6 7 7 7 7 7 6 7 8 8 8 8 8 8 9 9 8
11 8 7 8 7 7 10 13 14 12 6 10 14 10 10 14 12 12 15 14 10 10 16 21 29 31 29 30 30 30 30 30 29 27 25 23 22 21 24 25 24 27 27 24 24 24 23 22 23 23 24 22 20 21 21 19 19 18 17 17 15 15 16 15 12 10 8 7 7 7 6 5 6 6 4 4 5 6 6 7 6 5 6 7 8 8 7 7 8 8 8 8 9 8 9 9 7
9 6 6 6 7 7 10 15 15 9 4 9 14 10 9 10 12 13 11 9 8 13 19 23 31 32 28 29 30 30 31 33 32 29 27 24 23 23 23 24 26 27 25 25 26 24 22 22 22 23 24 22 20 20 19 18 18 16 15 15 14 14 15 14 13 12 9 7 7 6 5 5 5 6 5 4 5 6 6 6 5 6 7 7 8 8 8 7 8 8 8 8 9 9 10 10 8
8 6 5 6 8 6 6 10 9 4 0 7 10 6 4 6 8 10 9 10 15 21 23 26 33 36 34 33 35 36 36 36 33 29 28 26 25 24 24 26 24 23 26 28 25 23 24 25 24 25 25 24 22 21 19 18 18 16 15 15 14 14 15 12 12 12 10 9 9 7 5 5 4 4 4 5 4 5 6 5 5 5 6 6 7 8 8 8 8 7 7 8 9 9 10 11 10
6 7 6 5 8 8 6 7 9 7 4 5 7 4 4 4 4 5 7 6 12 18 19 19 22 28 33 34 36 40 40 38 34 31 29 27 26 24 25 26 19 19 27 27 25 25 26 27 27 26 26 25 24 23 21 19 19 18 18 18 16 16 16 12 11 12 11 10 10 9 7 5 5 3 3 4 4 5 5 6 6 4 4 6 7 7 7 7 8 7 7 8 9 9 9 11 11
4 5 7 6 10 12 9 10 9 6 5 3 6 4 5 5 3 5 7 4 7 12 12 12 14 18 30 35 33 35 37 36 32 30 28 24 23 21 21 21 15 17 23 24 26 26 26 27 28 28 27 26 25 24 23 21 21 20 19 20 19 17 16 13 13 13 11 9 10 11 9 6 5 3 3 4 3 3 3 5 6 5 5 6 6 6 6 6 6 6 7 8 9 9 9 10 10
3 4 5 8 11 13 10 9 6 2 3 3 4 4 3 5 5 6 6 6 8 8 8 11 13 17 30 35 32 32 33 31 28 27 24 20 18 15 12 13 13 17 22 24 26 25 24 26 27 28 27 26 25 24 24 23 22 22 20 19 17 16 16 16 15 14 12 10 10 12 12 9 6 3 1 1 1 0 3 5 5 5 4 4 5 6 6 6 6 5 6 8 9 10 10 10 9
4 4 6 10 10 12 10 5 5 4 4 3 2 5 2 3 5 8 7 7 5 5 8 7 11 21 29 29 29 29 29 29 28 25 22 17 15 11 7 10 15 21 23 24 24 23 23 26 27 28 28 26 25 24 25 23 21 21 20 18 16 15 16 18 17 15 14 11 9 10 11 10 9 7 4 3 2 2 3 5 3 2 3 3 4 4 5 6 6 6 6 7 9 9 10 10 9
4 5 8 11 10 11 10 5 6 4 2 2 3 4 3 3 6 7 7 7 5 5 8 6 14 23 27 27 28 30 30 29 25 23 22 18 15 11 9 19 24 23 19 20 23 23 25 27 28 29 28 27 26 25 24 22 20 20 19 17 16 15 15 17 16 14 13 10 9 10 9 9 9 8 6 4 2 3 5 7 6 4 3 4 2 3 4 5 6 5 5 7 8 8 9 9 9
6 8 9 10 9 9 7 5 5 1 2 4 5 3 2 4 6 5 5 5 6 6 4 7 16 24 30 33 31 29 29 25 21 22 23 19 17 16 14 23 26 20 16 20 22 24 25 26 27 28 28 27 26 25 24 22 20 20 21 19 17 14 13 14 15 13 12 11 11 12 9 7 8 9 8 5 3 3 4 7 9 6 5 6 4 4 6 6 6 6 6 7 7 7 8 8 8
7 7 7 7 7 6 5 5 4 3 1 5 5 3 4 3 5 3 3 4 6 7 6 8 15 26 33 34 33 30 29 28 26 24 22 20 21 18 17 22 21 18 17 19 20 22 25 26 27 28 29 28 27 26 23 21 21 22 21 19 17 14 13 13 14 12 12 13 13 12 9 7 7 9 10 8 6 5 4 5 8 8 7 7 4 2 4 6 7 7 6 6 6 6 7 8 8
6 5 5 4 5 4 4 2 4 3 4 5 5 4 5 3 5 4 1 6 2 6 11 10 14 26 32 34 35 34 33 32 29 25 22 22 23 19 21 24 22 20 19 18 19 23 26 27 28 30 30 29 28 26 24 22 23 22 19 17 16 14 12 12 13 13 14 14 13 11 9 6 5 6 8 10 9 8 6 5 8 9 8 7 4 3 2 3 5 6 6 6 7 7 8 8 8
7 6 4 3 2 3 3 2 3 3 4 4 6 5 4 4 3 3 5 10 9 6 12 15 20 29 35 37 38 34 32 31 27 23 21 23 25 24 25 26 25 23 20 17 17 23 29 29 29 31 31 30 29 28 26 25 24 21 18 16 15 14 13 12 13 14 14 14 12 10 8 5 4 4 7 10 10 10 10 8 8 8 8 8 7 4 2 2 3 5 5 6 7 9 9 8 8
6 5 4 3 1 0 2 3 1 2 3 4 5 4 4 3 1 4 7 10 12 14 16 22 31 37 38 38 37 32 30 30 28 26 23 23 25 27 28 30 31 28 21 17 21 27 32 32 31 31 31 31 30 29 29 27 24 21 19 17 15 15 14 13 14 15 15 14 11 9 7 6 4 4 6 7 8 10 11 11 9 7 7 9 9 7 4 4 5 6 6 6 8 10 11 12 13
4 4 5 5 3 4 3 2 1 3 3 4 3 3 2 2 2 2 10 14 17 22 25 32 37 38 37 35 33 31 29 29 29 30 26 23 25 29 29 31 34 34 28 27 32 32 32 32 32 32 31 30 30 29 29 27 25 23 21 19 17 16 15 14 16 16 14 12 10 9 9 8 6 5 5 5 6 9 11 11 9 7 7 11 11 8 7 7 7 7 9 9 9 11 14 17 17
2 1 3 4 4 5 3 2 3 3 1 3 0 2 2 2 2 4 12 15 17 22 27 33 32 31 32 29 27 28 28 28 29 31 27 23 26 30 32 30 30 33 34 33 34 32 32 32 32 32 31 31 30 29 29 27 25 24 23 20 18 17 17 16 17 15 13 11 10 11 11 10 8 7 6 5 5 7 10 10 8 6 10 14 13 10 10 10 8 7 10 12 12 13 16 19 18
2 1 3 6 6 7 4 1 2 2 2 2 0 2 1 1 2 5 11 12 13 15 19 24 25 27 29 25 24 25 26 26 26 27 26 25 25 28 33 31 29 30 32 31 30 31 32 32 32 31 30 31 31 30 28 25 23 22 21 19 18 17 18 18 17 16 14 12 12 12 11 10 9 8 7 6 6 8 10 10 8 9 12 15 15 13 13 13 10 8 11 13 13 15 17 19 19
3 2 4 3 1 4 4 2 1 1 1 3 2 5 1 2 1 3 9 11 10 11 13 16 19 23 25 23 24 25 25 25 24 25 27 29 29 28 31 32 32 31 30 28 27 28 30 30 30 29 28 29 29 28 26 23 21 20 19 18 16 16 18 18 17 17 16 14 13 12 12 11 9 8 6 6 9 10 10 10 10 10 11 12 14 15 15 14 11 10 12 12 13 15 19 20 19
6 4 3 1 2 1 1 2 3 2 2 3 1 4 2 2 1 3 5 7 7 10 11 11 13 17 21 23 24 26 27 27 26 28 32 33 31 30 30 32 32 31 29 28 27 26 27 28 28 27 26 26 26 26 25 24 22 21 19 17 16 16 18 19 17 16 16 14 13 12 11 10 8 6 6 9 11 10 10 10 10 10 9 9 11 13 13 12 11 12 13 12 12 16 19 20 18
5 3 2 2 3 3 1 2 3 3 3 2 2 3 2 1 3 2 3 6 7 9 9 9 10 14 19 21 23 26 28 29 29 31 32 33 32 30 30 32 32 30 30 29 28 28 28 28 28 28 27 26 24 26 26 26 25 23 20 17 17 17 19 20 17 15 15 14 12 11 10 9 7 6 8 11 10 9 8 8 9 9 9 9 9 10 10 10 12 13 13 11 12 16 18 18 16
4 3 3 2 2 2 2 1 2 4 3 2 2 0 3 4 4 2 5 6 6 8 9 9 11 15 18 18 21 25 26 27 29 30 30 30 30 28 27 30 31 30 29 29 28 27 27 28 27 26 27 25 24 27 28 27 26 25 21 18 18 18 19 20 17 14 14 13 10 9 9 8 7 7 10 11 9 8 7 7 8 9 11 11 10 10 12 12 13 14 14 14 14 15 16 16 16
2 1 3 3 3 3 2 2 2 3 3 3 4 2 3 4 2 4 6 6 6 8 9 10 13 16 18 19 20 22 23 25 26 25 26 27 26 23 21 24 27 28 27 26 25 24 23 23 22 22 23 22 23 26 27 27 26 24 23 20 18 19 20 19 16 14 14 11 9 9 9 8 8 10 11 10 8 7 7 8 9 9 12 12 11 12 13 13 14 15 16 16 17 18 18 18 18
Wind_Direction
158 143 139 133 123 113 99 145 190 247 178 267 251 240 248 230 240 266 268 274 284 303 73 79 75 81 85 89 90 73 52 40 81 93 126 136 153 171 168 156 153 156 158 151 145 141 138 137 135 139 143 145 147 147 149 151 146 141 141 143 138 132 126 124 121 116 116 112 109 107 104 104 107 111 111 111 111 110 108 107 111 115 121 125 122 112 113 120 115 105 102 110 112 107 103 101 102
143 128 136 134 116 106 309 181 184 264 154 264 248 228 254 249 243 252 261 263 248 60 71 71 75 89 91 85 78 67 55 55 84 100 116 136 145 148 150 148 143 148 157 151 143 141 137 136 135 139 142 145 148 149 151 151 146 142 144 145 139 133 129 127 121 116 118 116 114 112 111 108 109 112 113 114 114 116 114 113 116 122 128 126 126 123 124 128 121 110 108 109 108 107 104 103 103
146 139 137 137 4 212 298 278 199 242 164 242 246 234 262 269 250 256 280 249 127 82 70 64 62 76 80 73 65 70 79 77 96 108 114 142 144 130 137 139 136 148 156 151 143 141 137 134 135 137 140 145 149 152 153 152 147 145 146 145 141 135 131 130 122 119 121 120 118 117 115 113 113 115 117 119 121 125 123 125 130 131 129 121 123 127 129 132 127 119 116 111 107 107 105 106 106
158 148 138 155 272 224 278 233 201 217 205 238 253 249 242 252 242 256 5 51 66 66 72 74 60 66 79 77 80 80 82 97 115 120 117 145 148 131 138 141 142 153 154 150 144 140 136 132 133 135 140 145 150 154 155 153 149 147 147 146 143 137 134 134 127 124 125 122 122 121 119 117 117 119 121 122 125 128 127 132 136 135 130 118 125 131 134 136 135 131 127 122 110 105 107 108 108
161 152 141 172 247 257 265 227 212 197 229 238 265 277 257 262 160 129 36 59 56 49 60 89 90 70 76 73 80 80 82 100 117 134 131 137 145 139 146 148 146 155 153 148 143 139 132 129 131 135 141 146 150 154 156 154 151 150 148 147 144 139 138 139 135 131 127 124 125 125 124 122 122 122 123 126 129 131 131 135 137 139 140 140 141 139 140 140 140 138 138 135 113 106 109 109 109
149 153 166 220 256 289 308 252 242 233 238 232 261 274 275 297 104 127 89 76 73 58 48 89 112 90 76 73 69 71 114 111 115 140 142 135 143 148 143 144 150 156 151 145 142 136 129 127 129 134 140 146 151 154 157 155 154 152 148 148 145 142 143 143 140 135 128 126 127 127 126 125 124 123 124 130 132 131 133 135 137 139 139 134 134 139 146 147 146 146 149 141 117 111 114 112 112
143 164 197 216 254 267 266 252 259 261 248 236 244 254 259 262 191 135 115 89 29 77 89 101 108 98 88 105 74 63 110 129 128 144 151 142 150 144 136 145 153 153 147 143 137 132 127 126 129 133 139 145 151 153 156 156 155 153 149 149 147 148 147 145 142 136 132 129 128 127 126 125 121 121 123 126 127 126 124 122 120 118 115 111 116 126 142 153 154 152 152 146 128 121 120 117 116
154 232 239 196 256 222 225 256 257 261 262 256 254 263 263 222 168 124 123 139 95 132 137 114 104 89 82 111 84 72 105 137 139 147 151 144 145 131 127 140 150 148 141 139 135 132 127 126 130 133 139 143 147 150 154 155 155 152 150 151 151 153 151 147 143 138 135 133 130 129 126 124 121 120 120 119 121 123 120 116 111 107 106 102 103 113 125 142 151 151 151 151 144 134 128 123 119
178 238 262 226 228 250 249 251 251 255 261 262 264 269 276 171 130 60 46 104 132 222 131 125 114 104 97 97 91 95 105 123 132 136 137 128 129 126 123 137 143 137 137 141 137 133 126 127 130 132 137 139 142 147 151 153 153 152 152 154 155 157 152 147 142 138 137 135 133 130 127 124 122 121 120 119 119 123 122 115 107 102 100 96 96 102 108 115 133 148 156 159 156 148 138 131 123
197 225 249 285 219 257 255 253 252 251 255 256 260 251 215 123 117 83 15 29 58 357 95 118 117 114 108 94 96 107 112 124 126 124 123 119 129 133 132 144 138 121 133 144 139 132 127 128 130 133 134 136 142 146 149 151 152 154 155 157 160 159 150 146 142 139 139 137 135 132 128 125 126 126 125 123 122 126 123 112 104 98 95 97 100 104 108 110 122 140 158 168 167 162 149 139 128
212 220 226 284 249 251 246 255 254 256 258 255 261 237 172 125 113 101 51 348 328 331 103 109 104 111 105 89 104 120 128 135 134 126 125 127 137 137 140 152 142 120 129 139 139 131 128 130 131 132 132 138 144 145 148 150 154 156 158 161 160 155 148 147 144 142 142 137 135 135 134 131 132 134 131 126 126 130 125 114 104 95 92 94 94 93 91 89 103 124 142 165 174 174 163 149 132
232 221 202 233 232 235 242 254 257 265 266 261 265 219 153 128 119 123 147 223 91 287 177 128 132 126 106 94 124 139 143 145 148 136 135 137 140 143 150 157 148 134 130 138 141 133 132 135 135 134 137 144 147 147 150 152 157 160 163 164 158 154 152 151 148 146 144 139 139 141 140 138 141 143 136 127 126 130 126 115 101 89 87 89 88 84 73 59 46 66 108 154 176 186 182 174 148
236 248 196 224 233 235 249 258 263 274 280 275 262 165 137 131 129 146 159 155 91 292 260 143 143 130 103 125 136 148 148 148 150 144 145 142 144 151 155 154 150 144 135 142 143 137 139 142 141 143 145 148 148 150 154 157 162 167 167 164 161 159 156 154 151 148 145 145 146 146 144 144 146 142 135 127 121 121 116 107 97 90 92 90 86 82 69 56 39 337 63 156 178 193 197 195 175
229 245 232 252 258 252 256 258 266 277 283 289 295 123 118 110 93 77 87 65 16 88 119 134 140 122 114 130 140 153 147 148 150 146 148 145 150 155 156 155 151 142 138 146 145 141 143 145 147 150 153 151 151 154 159 164 167 170 169 167 166 161 156 154 150 149 149 149 149 148 146 143 139 132 131 129 116 111 109 107 101 94 94 88 79 74 70 73 87 118 133 176 187 198 203 203 195
227 242 245 262 269 269 266 260 266 274 262 265 45 93 91 72 81 65 56 46 59 90 108 118 123 119 145 151 158 161 148 150 153 148 149 147 152 154 158 156 140 130 139 149 148 148 149 149 151 155 160 157 156 159 163 168 170 172 171 170 167 158 157 156 151 152 152 151 152 148 142 138 133 134 138 131 117 114 114 112 103 92 89 83 77 73 72 78 83 98 125 168 179 183 195 200 201
227 241 258 257 267 271 265 265 273 272 263 260 96 61 81 97 109 94 68 344 67 79 86 79 82 117 152 163 162 158 148 151 152 150 151 146 148 150 148 138 125 130 144 152 153 156 154 153 156 160 165 163 163 164 168 171 172 173 173 171 165 160 161 160 154 154 155 155 155 144 137 137 136 144 142 129 124 124 117 111 105 99 92 79 76 73 74 80 82 96 108 130 147 146 164 183 193
228 233 249 264 266 259 265 263 268 266 291 323 17 16 22 112 130 157 140 101 81 82 78 74 92 114 137 156 153 150 146 150 149 151 153 147 149 149 141 130 130 142 151 155 158 160 157 158 161 164 169 171 170 168 171 174 174 175 173 170 165 164 165 164 161 158 161 159 152 140 135 139 139 146 143 140 146 132 119 112 110 102 97 84 78 71 73 80 84 99 105 110 123 129 142 160 173
231 211 226 244 251 251 262 254 268 304 39 345 4 22 7 54 68 123 148 109 96 92 85 85 95 105 123 140 144 147 148 151 149 153 156 153 151 144 138 137 142 150 154 159 163 162 159 166 168 169 174 176 175 172 176 176 175 176 174 170 166 167 167 167 166 165 166 157 147 139 139 141 141 150 151 161 159 132 122 119 117 112 111 102 95 90 77 78 87 96 105 117 130 136 140 147 154
233 200 221 227 243 252 261 267 289 302 323 1 29 42 341 10 69 83 106 106 98 92 91 93 97 105 121 135 145 148 151 154 151 157 160 155 152 145 142 144 148 151 155 159 161 162 164 173 173 173 178 179 179 176 179 179 177 177 174 170 169 169 167 167 168 168 165 153 146 144 144 146 147 156 165 172 156 131 123 121 125 125 123 122 127 136 113 103 103 104 112 121 129 128 125 125 130
232 223 233 236 242 252 262 268 277 284 295 67 71 98 276 359 68 108 81 87 87 97 108 103 108 118 129 139 149 149 155 158 152 159 160 154 153 150 149 150 153 153 156 156 158 166 172 177 175 175 181 181 181 178 177 179 177 176 173 171 172 170 166 164 166 165 162 155 153 152 151 152 157 169 175 168 142 130 125 123 137 138 143 151 164 147 127 134 125 118 121 130 132 126 121 112 106
222 217 221 252 253 263 261 262 272 291 334 66 107 135 286 341 319 52 87 90 85 115 123 125 132 135 140 146 153 152 157 159 156 162 158 155 156 154 154 157 160 157 158 159 156 163 168 174 176 178 183 180 179 177 175 177 176 175 175 174 172 169 165 163 163 163 164 163 162 161 158 158 168 176 173 153 133 138 140 157 167 161 172 175 163 131 124 131 128 119 118 138 140 133 133 123 109
232 233 224 240 251 268 268 274 290 312 4 22 35 40 337 337 326 1 51 131 137 140 134 140 146 148 154 156 158 157 159 162 160 163 161 161 163 159 158 160 164 161 162 161 150 149 155 164 172 176 178 178 176 177 176 175 175 175 177 175 171 168 167 166 166 167 171 173 172 170 169 172 177 176 166 153 149 163 172 193 203 179 180 172 149 132 125 124 123 121 118 143 150 140 136 129 114
237 258 235 236 238 250 268 279 291 307 357 14 9 340 332 342 332 329 324 148 142 145 140 143 153 160 164 160 161 162 163 164 161 162 165 166 167 164 161 161 164 163 164 163 156 155 153 157 168 172 171 176 175 175 176 173 175 176 175 174 171 169 171 173 172 173 177 180 179 178 182 184 182 173 165 169 171 174 178 205 233 224 216 211 184 147 122 115 121 132 131 148 163 162 148 135 121
233 251 246 247 246 251 265 269 272 272 306 30 360 324 319 321 298 315 39 126 138 144 142 144 152 161 165 165 164 166 165 161 160 163 165 169 168 166 162 161 164 165 163 163 164 163 155 155 165 167 166 171 171 173 174 172 177 176 172 172 171 172 178 181 177 177 180 183 185 188 191 184 180 180 176 180 185 190 199 224 225 239 255 249 234 179 121 99 111 157 165 156 161 166 154 139 134
240 242 245 251 255 260 267 273 275 262 193 129 278 282 286 293 302 313 109 127 137 144 146 148 149 154 162 169 168 166 162 154 153 160 163 167 168 166 162 161 164 166 163 159 160 158 153 156 162 164 164 165 166 171 172 171 175 172 170 173 171 176 185 184 179 181 186 188 190 193 194 186 192 203 202 199 203 217 226 231 227 247 258 247 244 189 136 147 127 172 178 168 163 159 146 137 136
250 247 245 243 249 257 265 273 279 274 204 160 176 203 258 278 320 325 146 137 137 144 149 150 150 157 168 176 172 162 156 149 150 162 169 170 166 162 161 163 164 164 161 156 156 153 152 156 159 161 162 163 166 170 171 172 174 172 173 174 175 182 185 183 182 186 189 191 191 191 192 196 211 216 223 232 234 236 234 233 229 244 249 243 248 184 143 205 231 284 171 169 170 155 147 147 140
263 262 257 245 244 251 258 261 267 281 256 172 176 187 243 254 244 306 178 148 145 146 148 154 160 166 177 184 174 161 161 160 158 168 176 175 172 163 163 168 165 161 157 152 153 152 152 155 156 158 161 165 169 170 170 172 173 172 174 174 179 184 180 182 186 189 192 192 190 194 198 198 213 220 227 241 247 244 240 240 230 229 237 240 241 198 187 251 254 272 185 179 172 154 151 158 154
277 283 282 259 249 250 251 255 265 282 277 203 234 254 251 249 198 234 236 173 154 153 154 159 167 170 177 183 173 164 168 168 166 177 179 176 180 173 170 172 165 161 159 155 155 154 154 155 155 158 161 165 167 167 167 170 170 171 173 176 179 178 176 182 185 189 195 196 196 201 206 206 218 223 228 240 248 247 238 235 231 231 238 244 243 218 229 253 255 263 228 213 164 149 154 163 169
275 284 291 279 275 260 245 246 266 275 245 203 219 244 256 252 204 216 237 215 169 163 164 162 164 170 174 176 172 168 172 173 172 180 178 173 177 173 173 179 169 161 161 160 157 155 155 156 156 157 161 165 167 168 169 171 171 169 171 174 173 171 173 178 182 189 198 202 206 211 215 221 226 223 227 237 243 245 236 230 236 239 243 249 249 240 241 243 250 257 248 237 179 171 164 169 184
267 272 273 281 297 280 250 234 257 266 228 205 205 223 245 239 237 225 229 236 203 171 169 167 161 166 172 172 171 170 173 174 170 173 173 170 169 166 173 183 174 163 161 161 158 156 156 156 157 158 163 169 170 172 173 171 169 168 169 169 167 169 172 175 183 195 204 204 207 216 223 225 227 227 230 234 237 240 240 241 243 242 243 244 244 243 239 229 232 239 235 227 210 189 174 179 192
271 278 280 262 267 274 271 247 239 253 219 201 196 206 238 231 234 231 228 234 227 178 166 169 159 161 169 171 170 169 170 170 169 170 168 165 161 163 172 178 175 167 163 163 159 157 157 155 155 159 167 171 171 171 172 170 167 166 166 165 165 169 171 174 182 192 204 209 207 212 223 224 225 230 232 233 236 239 242 247 249 248 244 240 241 238 229 221 221 223 221 213 200 181 180 187 193
263 252 274 254 241 254 267 257 236 246 222 198 198 213 231 232 228 231 225 228 235 189 165 168 158 163 169 171 170 166 166 167 169 170 165 166 166 170 177 178 179 175 167 167 164 160 158 155 154 160 168 169 168 169 171 169 165 164 165 165 165 167 170 171 174 186 201 211 209 208 217 224 227 231 235 238 239 241 243 245 249 251 246 242 241 232 222 215 212 212 208 198 184 180 183 182 188
271 227 245 250 248 251 248 245 236 245 239 198 201 208 218 228 239 241 229 225 231 188 165 166 158 164 169 168 167 161 162 162 163 165 169 178 179 183 189 184 186 182 172 170 168 164 160 157 155 162 167 164 165 168 167 162 161 164 164 165 165 165 169 168 170 181 190 196 195 199 202 210 229 232 234 242 241 242 243 243 247 246 240 239 234 224 217 214 211 206 193 184 179 185 187 178 182
275 250 232 241 243 249 251 243 229 234 238 212 200 203 223 217 230 245 236 223 221 183 162 163 161 165 166 166 163 159 160 158 161 169 178 188 186 189 193 187 190 186 177 174 170 165 162 157 156 162 164 161 164 166 160 157 160 159 157 162 163 159 159 159 164 170 172 171 169 184 181 178 206 215 220 234 236 238 240 241 244 240 236 237 227 215 213 210 206 196 184 181 182 185 185 174 168
241 245 229 234 233 236 245 250 236 225 222 214 205 199 219 234 232 245 242 223 213 189 161 160 167 168 165 167 163 160 160 159 167 174 180 187 183 185 186 185 188 184 179 173 164 163 163 157 157 159 160 161 165 163 156 155 158 156 154 156 153 151 148 146 147 149 158 164 158 168 172 170 184 187 197 222 228 230 229 233 237 233 230 229 215 204 205 205 198 189 183 180 177 176 175 167 153
233 244 235 229 229 233 238 241 243 237 217 204 209 196 201 227 237 249 256 245 232 209 166 154 165 167 164 170 168 164 164 165 170 174 180 183 179 181 182 183 186 183 179 169 160 166 168 158 156 158 161 164 166 162 158 157 157 156 154 151 148 147 141 133 128 130 147 157 154 157 165 167 156 144 170 210 222 215 205 211 216 217 220 215 202 193 193 197 193 187 182 176 176 172 168 169 162
249 257 262 258 252 252 246 243 238 233 218 201 204 191 190 214 224 239 251 257 266 232 179 152 158 164 165 170 168 164 162 165 170 174 178 175 173 181 183 184 188 187 180 164 158 170 168 155 153 160 162 162 164 161 157 156 156 155 153 150 146 140 136 134 133 139 144 145 150 152 154 151 133 134 164 183 191 196 192 190 191 200 207 204 197 191 188 189 193 194 185 178 179 175 171 175 174
259 264 276 281 278 276 270 270 254 231 215 200 195 185 194 208 215 232 241 249 263 212 175 154 155 165 169 167 164 157 154 160 165 169 171 168 172 181 184 186 189 190 179 157 156 167 163 153 153 161 158 156 164 160 154 155 155 152 149 147 143 139 144 149 153 158 150 138 143 145 145 139 126 133 146 156 168 176 180 186 188 187 191 202 205 200 194 189 193 198 195 187 183 181 181 183 181
256 263 276 282 277 289 290 283 271 245 209 187 184 186 205 206 206 222 224 221 214 177 169 165 158 162 170 169 164 157 153 159 163 165 167 167 174 181 181 185 190 191 174 154 160 166 159 153 156 159 154 155 163 154 148 148 144 140 138 139 139 140 149 156 160 166 166 150 140 137 140 133 124 130 133 141 159 165 173 189 199 187 180 193 203 203 203 200 196 198 201 197 191 189 190 193 195
243 237 251 269 267 280 290 288 299 316 147 153 160 176 233 222 204 223 224 192 186 182 181 177 167 167 172 172 168 163 160 162 164 166 167 168 177 182 182 186 191 183 162 153 161 165 158 154 155 158 156 157 158 149 144 141 138 139 140 143 143 141 147 152 150 155 161 156 143 137 137 131 122 116 115 123 141 152 154 160 173 180 177 182 194 200 205 209 210 209 209 204 201 198 197 202 202
246 227 225 256 271 271 277 306 337 350 355 86 96 59 321 271 213 254 260 203 185 191 188 181 174 168 167 168 165 163 165 166 165 164 167 172 178 182 185 187 183 159 150 155 166 168 161 154 154 160 161 157 154 151 150 148 149 154 155 157 155 147 151 156 142 138 146 150 142 138 140 137 127 119 115 114 128 139 133 131 134 145 168 175 185 194 199 209 216 215 212 209 210 207 204 209 207
279 238 222 242 271 278 292 318 338 356 329 353 76 64 309 298 289 281 277 252 207 199 185 181 180 148 144 155 157 156 162 164 161 159 163 171 178 185 189 185 163 137 144 160 170 167 157 153 155 161 161 157 156 156 157 158 160 162 163 164 164 160 160 162 153 145 146 147 138 135 139 138 124 119 113 106 120 146 144 140 128 123 154 169 169 174 177 186 196 198 200 201 203 205 205 208 209
279 261 246 246 258 269 280 302 316 341 273 277 92 120 261 309 307 272 257 247 229 197 164 177 179 133 132 147 152 152 156 152 145 147 154 164 174 176 174 169 150 133 140 156 163 160 154 154 157 159 159 160 162 161 163 167 167 166 167 167 171 171 160 151 151 152 152 153 146 141 145 151 151 147 101 61 30 205 152 145 131 115 133 163 168 163 159 160 165 170 180 186 190 199 204 203 205
236 245 269 266 259 262 259 263 275 254 216 240 111 128 184 300 284 269 259 253 250 174 160 164 140 125 127 134 137 138 139 136 135 141 151 162 169 160 117 114 124 126 137 152 158 158 160 159 161 161 160 164 168 168 171 176 175 171 170 169 168 164 151 143 145 152 158 162 157 151 154 159 169 182 200 232 249 202 157 139 129 106 100 129 169 175 163 161 168 167 168 177 185 197 200 201 205
233 216 242 260 261 260 253 227 249 258 127 270 271 133 132 277 264 282 284 264 260 192 177 133 111 119 113 108 121 129 128 133 140 147 159 169 174 171 114 100 107 112 129 152 158 162 164 164 164 163 162 167 171 173 177 180 180 173 167 162 156 152 152 150 152 160 166 169 157 151 154 154 162 172 177 191 184 176 176 159 160 167 137 138 176 218 197 175 171 172 170 169 174 187 190 193 202
224 218 235 257 264 265 260 227 228 208 98 260 266 151 129 281 274 287 291 257 234 212 172 119 115 109 97 100 118 127 126 134 140 147 163 168 164 166 133 108 105 106 128 150 157 164 166 168 169 166 166 171 175 176 178 181 179 170 164 160 155 159 165 163 165 166 164 160 149 145 151 151 158 163 161 160 154 166 170 162 167 165 153 169 201 225 206 189 169 168 175 170 167 176 178 178 184
212 216 235 257 267 274 273 233 178 111 214 241 240 185 155 255 282 250 243 262 218 171 119 113 112 101 98 105 115 120 128 138 143 149 162 160 152 150 134 120 111 112 135 149 157 166 170 174 174 171 173 176 178 179 179 181 174 164 165 163 159 166 174 172 169 162 156 153 147 150 162 171 171 172 168 160 157 166 154 153 173 170 161 178 196 177 181 187 174 166 167 166 166 169 170 169 163
213 212 213 242 282 323 325 270 135 137 248 229 208 206 173 198 276 266 359 353 319 141 122 121 107 100 104 109 115 122 132 138 143 150 159 161 161 154 140 130 117 117 138 152 161 170 175 181 179 176 178 180 182 181 180 181 172 166 170 167 162 168 173 172 162 155 154 152 149 156 171 180 171 169 172 168 169 179 179 171 177 180 176 173 160 123 133 174 176 165 159 162 162 159 165 165 147
209 215 196 214 292 360 336 284 164 192 240 209 192 220 217 193 269 311 49 36 20 68 116 124 109 104 109 112 115 120 127 132 141 152 159 169 178 170 152 138 125 125 138 154 173 180 180 183 183 181 181 182 185 184 180 180 175 173 177 173 169 170 170 168 160 155 154 152 150 156 170 179 173 164 166 173 184 189 188 186 178 181 178 155 138 135 104 86 164 168 163 164 153 145 153 154 136
187 192 168 171 184 126 275 279 238 218 246 231 194 203 239 212 325 5 57 60 47 53 85 108 110 114 118 119 120 124 131 138 150 158 156 162 176 177 163 151 146 142 142 166 190 189 183 182 184 185 184 184 186 183 179 179 177 177 181 182 178 172 169 168 162 159 156 152 149 152 169 181 187 186 167 174 194 191 190 192 187 190 180 153 144 147 126 103 144 156 154 155 141 132 135 131 125
180 182 155 164 166 167 210 212 203 231 270 280 205 172 215 191 200 64 69 64 56 56 70 90 106 118 123 123 125 129 136 142 150 151 146 153 171 180 175 166 164 158 156 178 191 186 182 183 185 187 187 186 186 184 183 181 177 178 184 187 182 174 171 169 167 164 157 152 149 153 173 188 200 209 197 196 200 187 189 193 196 204 186 166 159 157 148 140 144 149 150 151 142 134 135 131 126
272 214 163 208 194 155 172 192 192 179 81 330 269 174 230 194 212 72 76 65 57 61 71 83 98 111 114 116 120 126 135 143 150 149 148 159 173 181 183 182 181 173 169 181 187 181 183 186 187 189 191 191 189 190 189 183 179 183 188 188 182 177 176 172 169 166 159 159 161 165 178 195 209 216 217 228 219 193 193 198 202 189 170 170 170 163 162 163 160 154 150 146 140 141 144 140 136
308 312 204 230 197 143 129 259 284 83 94 290 160 132 294 328 344 37 69 69 62 66 71 80 92 102 105 109 116 126 136 143 151 153 154 163 175 185 189 189 190 185 180 183 183 182 187 190 191 192 194 195 194 194 192 185 181 185 188 188 184 180 180 175 170 168 167 171 173 175 186 200 210 219 229 228 200 177 176 179 173 152 151 167 175 171 170 176 179 164 153 149 143 144 149 148 146
140 235 224 250 150 119 112 117 311 46 148 260 151 132 76 39 305 3 60 70 71 76 79 82 90 99 105 111 122 132 140 144 150 153 155 165 179 190 193 192 190 186 184 184 185 189 193 195 199 199 198 199 199 198 194 187 185 188 190 191 191 187 181 177 174 174 174 177 180 185 197 206 211 221 223 188 162 154 151 150 147 141 143 160 175 180 183 188 191 171 158 157 150 147 151 151 151
165 198 206 101 84 77 35 133 172 176 193 271 66 101 63 60 267 309 63 86 89 87 88 88 89 98 108 116 125 133 138 143 150 157 163 172 182 189 191 190 188 186 185 185 187 193 195 201 209 209 205 203 202 199 195 189 190 196 197 195 195 192 183 180 182 182 179 180 185 192 201 207 212 217 191 162 154 151 147 145 146 150 152 153 164 178 185 189 185 171 166 162 153 151 152 151 150
203 171 119 116 141 163 194 162 159 156 179 243 32 34 335 295 281 298 98 103 96 90 87 88 94 104 113 122 131 136 139 142 150 159 166 172 177 184 189 187 186 188 187 186 188 191 193 201 209 214 213 209 204 198 193 191 192 197 200 199 198 192 185 185 187 183 178 179 188 198 202 201 201 188 163 157 157 155 152 152 157 164 166 163 160 160 158 157 158 161 161 154 148 152 154 152 148
247 206 182 163 131 149 174 201 176 146 149 167 122 62 270 267 295 17 72 76 84 93 92 90 98 108 118 126 135 141 142 143 149 155 161 165 168 174 181 184 186 189 186 186 189 190 191 197 204 212 215 213 209 202 196 195 194 193 197 200 197 191 185 189 193 183 174 178 190 197 195 191 182 159 154 156 156 157 158 157 162 167 167 169 168 156 146 145 147 148 145 141 140 144 149 149 143
350 262 222 182 123 122 114 305 257 143 116 154 153 151 259 269 313 45 56 56 56 60 78 97 102 112 123 127 132 139 141 141 144 150 157 160 160 161 166 174 180 184 185 187 189 190 192 198 205 214 218 219 216 208 204 204 200 196 195 193 193 193 190 193 196 185 177 182 193 194 187 182 165 150 151 153 148 149 151 149 152 157 162 169 166 155 152 151 147 142 141 142 141 139 142 144 142